Theta_e
290 289 289 289 288 288 288 288 288 288 288 288 288 288 288 288 288 288 288 288 288 287 287 287 287 287 288 288 288 288 288 287 287 287 287 287 287 287 287 287 287 287 287 287 287 287 287 287 288 288 288 290 291 293 295 296 295 295 295 295 295 295 295 295 294 295 295 295 295 295 295 295 295 296 296 296 296 296 296 296 297 297 298 298 298
289 288 288 288 288 288 288 288 288 288 288 288 288 288 288 287 287 287 287 287 287 287 287 287 287 287 287 287 287 287 287 287 287 287 287 287 287 287 286 286 286 287 287 287 287 287 287 287 287 287 287 287 288 289 291 293 294 295 295 295 295 295 295 295 294 294 295 295 295 295 295 295 295 295 296 296 296 296 296 296 296 297 297 297 297
288 288 288 288 288 288 288 288 288 288 288 288 288 287 287 287 287 287 287 287 286 286 286 286 286 286 286 286 286 286 286 286 286 286 287 287 287 287 287 287 286 286 286 286 286 286 287 287 286 287 287 287 287 287 287 288 290 292 294 295 295 295 295 294 294 294 294 294 295 295 294 294 295 295 295 296 296 296 296 296 296 296 297 297 297
288 288 288 288 288 288 288 288 288 288 288 288 288 288 287 287 287 287 287 286 286 286 286 286 286 286 286 286 286 286 286 286 286 286 286 286 286 286 286 287 286 287 287 286 286 286 286 286 287 286 286 286 286 287 287 287 287 288 289 291 293 294 295 294 294 294 294 294 294 294 294 294 294 295 295 295 296 296 296 296 296 296 296 297 297
288 288 288 288 288 288 288 288 288 288 288 288 288 288 287 287 287 287 287 286 286 286 286 286 286 286 286 286 286 286 286 286 286 286 286 286 286 286 286 286 286 286 286 286 286 286 286 286 286 286 286 286 286 286 286 286 286 287 287 287 289 291 293 294 294 294 294 294 294 294 294 294 294 294 294 295 295 295 296 296 296 296 296 296 297
288 288 288 288 288 288 288 288 288 288 288 288 288 288 287 287 287 287 286 286 286 286 286 286 286 286 286 286 286 286 286 286 286 286 286 286 286 285 285 285 285 285 285 286 286 286 286 286 286 286 286 286 286 286 286 286 286 286 286 287 287 287 289 292 294 293 293 293 294 294 293 293 293 294 294 294 294 295 295 296 296 296 296 296 297
288 289 289 289 289 289 289 289 288 288 288 288 288 287 287 287 287 286 286 286 286 286 286 286 286 286 286 286 286 286 286 286 286 286 285 285 285 285 285 285 285 285 285 285 285 285 285 285 286 286 286 286 286 286 286 286 286 286 286 286 286 286 286 288 291 293 293 293 293 293 293 293 293 293 293 293 293 294 294 295 295 296 296 296 296
289 289 289 289 289 289 289 289 288 288 288 288 288 287 287 287 286 286 285 285 285 285 285 286 286 286 286 286 286 286 286 286 286 285 285 284 284 283 284 284 284 284 284 284 284 284 285 285 285 285 285 285 285 285 285 285 285 285 286 285 285 286 286 286 287 289 292 293 293 293 293 293 293 292 292 292 293 293 293 294 294 295 295 296 296
289 289 289 289 289 289 289 289 288 288 288 288 288 287 287 286 286 285 285 285 285 285 285 285 285 285 285 285 285 285 285 285 285 285 284 284 283 282 282 282 282 282 282 283 284 284 285 285 285 285 285 285 285 285 285 285 284 285 285 285 285 285 285 286 286 286 288 291 293 293 292 292 293 292 292 292 292 293 293 293 293 294 294 295 295
289 289 289 289 289 289 289 289 288 288 288 288 287 286 286 285 285 285 285 285 285 285 285 285 285 285 285 285 285 285 285 285 285 284 283 282 281 281 281 280 280 280 280 281 282 283 283 284 284 284 285 284 284 285 284 284 284 284 284 285 285 285 285 285 286 285 286 288 290 292 292 291 292 292 292 292 292 292 292 292 293 293 293 293 294
289 289 289 289 289 289 288 288 288 288 288 287 286 285 284 284 284 284 284 284 284 284 284 285 285 285 285 285 285 285 285 285 284 283 283 282 280 279 279 279 280 280 280 280 281 281 282 282 282 283 284 284 284 284 284 284 284 284 284 284 284 284 285 285 285 285 285 285 287 289 291 292 293 292 292 292 292 291 291 292 292 292 292 292 293
289 289 289 288 288 288 288 288 288 287 287 286 284 284 284 283 283 283 283 283 284 284 284 284 284 284 284 284 284 284 285 284 283 282 282 281 280 278 278 278 279 279 279 279 279 280 280 281 281 281 282 282 283 283 284 284 284 284 284 284 284 284 284 284 285 285 285 285 285 286 288 290 292 292 291 291 291 291 291 291 291 291 292 292 292
289 289 289 288 288 287 287 287 286 286 285 284 283 283 283 283 283 283 283 283 284 284 284 284 284 284 283 283 283 283 283 283 281 280 280 279 278 277 277 277 278 278 278 278 278 278 279 279 279 280 280 280 281 281 282 283 283 284 284 284 284 284 284 284 284 285 285 285 285 285 286 287 290 291 292 291 291 291 291 290 291 291 291 291 292
289 288 288 287 287 286 286 286 285 284 283 283 283 283 283 283 283 283 283 283 283 284 284 284 283 283 282 282 282 282 282 280 278 278 277 276 276 275 275 275 276 277 277 278 277 278 278 277 277 278 279 279 279 279 280 281 281 282 283 283 283 284 284 284 284 284 284 285 285 285 285 286 287 288 291 291 291 290 291 291 290 291 290 291 291
288 287 287 286 286 285 285 284 283 283 283 282 282 282 282 282 283 283 283 283 283 283 283 283 282 282 281 280 280 281 280 278 276 276 275 274 273 273 272 273 274 274 276 276 276 276 277 277 277 277 277 278 278 278 278 279 280 281 281 282 282 283 283 284 284 284 284 284 285 285 285 285 285 286 288 291 291 290 291 291 291 290 290 290 291
287 287 286 286 285 284 283 283 283 282 282 282 282 282 282 282 282 282 282 282 282 282 282 282 281 281 280 279 278 279 278 276 274 274 273 272 272 271 271 272 272 273 274 274 274 274 275 275 275 275 275 276 276 276 277 278 278 279 280 281 281 282 283 283 284 284 284 284 284 285 285 285 285 285 286 289 290 290 290 290 290 289 289 290 290
287 286 286 285 284 283 283 282 282 282 282 282 282 282 282 282 282 281 281 282 282 281 281 281 280 279 279 278 277 277 277 275 273 273 272 271 271 271 270 271 271 271 271 272 272 272 272 272 273 273 273 274 274 274 275 276 276 277 278 279 280 281 282 283 283 283 283 283 283 284 284 285 285 285 285 286 289 290 290 289 289 289 289 289 289
287 286 285 284 283 282 282 282 282 281 281 281 282 282 282 282 281 280 281 281 281 281 280 280 279 278 277 276 275 274 274 273 272 272 272 271 271 270 269 269 269 269 269 269 270 270 270 270 271 271 272 272 273 274 274 275 275 276 277 277 278 279 280 281 282 283 283 284 283 283 284 284 285 285 284 285 287 289 290 289 289 289 289 288 289
286 285 284 283 282 282 282 281 281 281 281 281 282 282 281 281 280 280 280 280 280 280 279 279 278 277 275 274 273 272 273 272 272 271 271 271 270 270 268 268 268 268 268 268 269 269 269 269 269 270 271 272 272 273 274 275 275 275 276 276 277 278 279 280 281 282 283 283 284 283 283 284 284 285 284 284 285 287 289 290 289 289 289 288 289
285 284 283 282 282 282 281 281 281 281 281 281 281 281 280 280 280 280 280 279 279 279 278 277 276 275 274 273 273 272 272 272 272 271 271 271 270 269 268 268 268 268 268 268 268 268 269 269 270 270 271 272 272 273 273 274 275 275 275 275 275 276 277 278 280 282 283 283 284 284 283 283 284 284 284 284 284 286 288 289 290 289 289 289 288
283 283 282 282 282 281 281 281 281 281 281 281 281 280 280 280 280 279 279 278 278 278 277 275 274 274 273 273 272 272 272 272 271 271 270 270 270 269 268 268 268 268 268 268 269 269 269 270 270 270 271 271 272 272 273 274 274 275 275 275 275 276 276 277 278 280 282 283 284 284 284 283 283 284 284 284 284 284 286 287 289 289 289 289 288
283 282 282 281 281 281 281 280 280 280 280 280 280 280 280 279 279 278 278 278 277 276 275 274 273 273 273 273 273 272 272 272 271 271 270 270 270 269 268 268 268 269 269 269 269 269 270 270 270 270 271 271 271 272 272 273 273 274 275 275 276 277 277 277 277 278 280 282 283 284 284 284 284 284 284 284 284 284 284 285 287 288 289 289 289
282 282 282 281 281 280 280 280 280 280 280 279 279 279 279 279 278 277 277 277 276 275 274 273 273 273 273 273 273 273 272 272 271 271 270 270 270 270 269 269 269 270 270 270 270 270 270 271 271 271 271 272 272 272 273 273 274 274 274 275 275 276 277 278 278 278 279 281 283 284 284 284 284 284 284 284 284 284 284 284 285 287 288 289 289
282 282 281 281 280 280 280 280 280 279 279 279 279 279 279 278 278 277 276 276 275 274 274 273 273 273 273 273 273 273 272 271 272 271 270 270 270 270 270 270 270 271 271 271 271 272 272 272 272 273 273 273 273 273 273 274 274 274 274 275 275 276 277 278 278 279 279 279 281 284 284 284 284 284 284 284 284 284 284 284 284 285 287 288 289
282 281 281 280 280 280 280 280 279 279 279 279 279 279 278 277 277 276 276 275 274 274 273 273 273 273 272 271 271 271 271 270 271 270 269 269 270 270 271 271 271 271 271 272 272 272 273 273 273 274 274 274 274 274 273 273 273 273 274 274 275 275 276 277 277 278 279 279 280 282 284 285 284 284 284 284 284 284 284 284 284 285 286 287 288
281 281 280 280 279 279 279 279 279 279 279 278 278 278 277 277 276 276 275 274 274 273 273 273 273 272 270 269 269 269 268 268 269 269 269 269 270 271 271 271 272 272 272 272 272 273 273 273 274 274 274 274 274 273 273 273 273 273 274 274 274 275 275 276 276 277 279 279 280 281 284 285 285 284 284 284 284 284 284 284 284 284 285 286 287
281 280 280 279 279 279 279 279 279 279 279 278 278 277 276 276 276 275 275 274 274 273 273 272 271 269 268 267 268 268 268 268 268 268 269 269 270 271 272 272 272 273 273 273 273 273 274 274 274 274 274 274 274 274 274 274 274 274 274 274 274 274 275 275 276 277 278 280 280 281 283 285 285 285 285 285 285 284 284 284 285 284 284 285 286
280 280 279 279 279 278 278 278 278 278 278 278 277 277 276 276 275 275 275 274 274 273 272 270 268 267 267 267 268 268 268 268 268 269 269 270 271 272 272 273 273 273 273 274 274 274 274 274 274 274 274 274 274 274 274 274 274 274 274 273 274 274 275 275 276 277 279 280 280 281 283 285 285 285 285 285 285 285 285 285 284 284 284 284 286
280 279 279 278 278 278 278 278 278 278 278 277 277 276 276 276 275 275 275 274 274 273 271 268 267 268 268 268 268 268 268 269 269 270 271 272 273 273 273 274 274 274 274 274 275 275 275 275 275 274 274 274 274 274 274 274 274 274 274 274 274 274 275 276 276 277 279 281 281 281 283 284 285 285 285 285 285 285 285 285 285 284 284 284 285
279 279 278 278 278 277 277 277 277 277 277 277 277 276 276 276 275 275 275 274 274 273 271 269 268 268 268 268 268 268 268 269 269 270 271 272 274 274 274 274 274 274 275 275 275 275 275 275 275 275 274 274 274 274 274 274 274 274 274 274 274 274 275 276 277 278 280 281 281 282 283 284 285 285 285 285 285 285 285 285 284 284 284 284 285
279 278 278 278 277 277 277 277 277 277 277 276 276 276 276 276 276 276 275 274 274 274 273 272 271 270 269 269 268 268 269 270 269 270 271 272 274 274 274 274 275 275 275 275 275 275 275 275 274 274 274 274 274 274 274 274 274 275 275 275 275 275 275 276 277 278 280 282 282 282 282 283 284 284 284 285 285 285 285 284 284 284 284 284 284
278 278 277 277 277 276 276 277 277 276 276 276 275 275 275 276 276 277 276 276 275 274 273 273 272 272 271 271 269 269 269 270 270 270 271 271 273 274 274 274 275 275 275 275 275 274 274 274 274 274 274 274 274 274 275 275 275 275 275 275 275 275 275 276 277 278 279 281 283 283 283 283 283 283 284 284 284 285 285 284 284 284 284 284 284
278 277 277 277 276 276 276 276 276 276 276 275 275 275 275 275 275 276 277 277 276 276 275 273 272 271 272 272 272 271 270 271 271 271 271 271 272 273 274 274 274 274 274 274 274 274 274 274 274 274 275 275 274 274 274 275 275 275 275 275 276 276 276 276 277 278 279 281 282 282 283 283 283 283 284 284 284 285 285 284 284 284 283 284 284
277 277 276 276 276 275 275 276 276 276 275 275 275 275 275 274 274 274 275 276 276 276 276 276 275 273 272 273 273 273 272 272 273 272 271 270 271 272 272 273 274 274 274 273 273 273 273 273 274 274 275 275 274 274 274 275 275 276 276 276 276 276 276 276 277 278 279 281 281 281 282 282 283 283 284 284 284 285 285 284 284 284 284 284 284
276 276 275 275 275 275 275 275 275 275 275 275 274 274 274 274 274 274 274 274 274 274 275 276 276 275 274 274 274 274 273 274 273 272 271 270 271 271 272 273 273 274 274 273 272 272 272 272 273 275 275 275 275 274 275 276 276 276 276 276 276 276 276 276 277 277 278 280 281 281 281 281 282 283 283 283 284 284 285 285 284 284 284 284 283
275 275 275 274 274 274 275 275 275 275 274 274 274 274 274 274 274 274 274 273 273 273 273 274 275 275 275 274 274 274 274 274 273 271 270 271 272 272 272 272 272 272 273 272 272 272 272 273 274 274 275 275 276 276 276 277 278 277 277 276 276 276 276 276 277 277 278 280 281 281 281 281 282 283 283 283 284 284 284 285 285 284 284 284 283
275 274 274 274 274 274 274 275 274 274 274 274 274 274 274 274 273 274 274 273 273 273 273 273 273 274 275 274 274 274 275 274 273 272 271 272 272 272 271 270 270 271 271 271 271 272 273 274 274 274 275 276 276 276 277 277 278 278 278 277 276 276 276 277 277 278 278 280 281 281 281 281 282 283 283 283 284 284 284 284 284 284 284 284 283
274 274 273 273 273 273 274 274 274 274 274 274 273 273 273 273 273 273 273 273 273 272 273 272 272 271 272 273 274 274 273 273 273 274 274 273 272 272 271 270 270 270 271 271 271 271 273 274 274 275 275 276 276 276 277 277 278 278 278 278 278 278 278 278 278 279 279 280 281 281 281 281 281 281 281 282 282 283 283 283 283 283 283 282 281
273 273 273 273 272 273 273 274 274 274 274 273 273 273 273 273 273 273 273 273 273 272 272 272 271 270 270 271 271 271 271 272 273 273 273 273 272 271 271 270 270 271 271 271 271 271 272 273 274 274 275 276 277 277 277 277 278 278 278 278 279 279 279 279 279 280 280 281 281 281 281 281 281 281 281 281 281 281 282 282 283 283 283 282 281
273 273 272 272 272 272 273 273 273 273 273 273 273 273 273 273 273 273 273 272 272 272 272 272 271 270 270 270 268 267 268 271 271 271 271 271 271 271 270 270 270 270 270 271 271 271 271 272 273 273 274 275 276 277 277 278 278 278 278 278 278 279 279 279 280 280 281 281 281 281 282 281 281 281 282 282 282 282 282 282 282 282 282 281 281
272 272 272 272 272 272 273 273 273 272 272 272 272 272 272 272 272 272 272 272 272 272 272 272 271 270 270 270 269 268 269 270 270 270 270 270 270 270 270 269 269 269 270 270 270 270 271 271 271 272 273 274 275 276 277 277 278 278 279 279 279 279 279 279 280 280 281 281 281 281 282 282 282 282 282 282 282 282 282 282 282 281 281 280 279
271 271 271 271 271 272 272 272 272 272 272 272 272 272 272 272 272 272 272 272 272 271 271 271 271 271 270 270 270 270 270 270 270 270 270 269 269 270 269 269 269 269 269 269 269 270 270 271 271 271 272 272 273 274 275 276 276 277 277 278 278 278 278 278 279 279 280 280 280 281 281 281 281 281 282 282 282 282 281 281 280 280 279 279 278
271 271 271 271 271 271 272 272 272 272 271 271 271 272 271 271 272 272 272 271 271 271 271 271 271 271 270 270 270 270 270 270 270 270 270 270 269 269 269 269 269 269 269 269 269 269 270 270 271 271 271 272 272 273 273 274 274 275 276 277 277 277 277 277 278 278 278 279 279 280 280 280 280 281 281 281 281 280 280 280 279 279 278 278 277
270 270 270 270 270 270 271 271 271 271 271 271 271 271 271 271 271 271 271 271 271 271 270 270 270 270 270 270 270 270 270 270 270 270 270 270 270 269 269 270 270 270 270 270 270 270 270 270 270 271 272 272 272 273 273 272 273 273 274 275 275 276 276 276 277 277 277 277 278 278 279 279 279 279 280 280 279 279 279 279 278 278 277 277 276
270 270 270 270 270 270 270 271 271 271 271 271 271 271 271 271 271 270 270 270 270 270 270 270 270 270 270 270 270 270 270 270 270 269 270 270 270 270 270 270 270 270 270 270 271 271 270 270 270 270 271 272 272 273 273 273 273 273 273 273 274 274 275 275 275 276 276 276 276 277 277 278 278 278 278 278 278 278 278 277 277 277 276 276 276
269 269 269 269 269 270 270 270 270 270 270 270 270 270 270 270 270 270 270 270 270 270 270 270 270 270 270 270 270 270 270 270 269 269 269 269 270 270 270 270 270 270 270 270 271 271 271 271 270 270 270 271 271 272 272 273 273 273 273 273 273 274 274 274 275 275 275 275 275 276 276 276 277 277 277 277 277 277 276 276 276 276 276 275 275
269 269 269 269 269 269 269 269 270 270 270 270 270 270 270 270 270 270 270 270 270 269 269 269 269 269 269 269 269 269 269 269 269 269 269 269 269 269 270 270 270 270 270 270 270 271 271 271 271 271 271 271 271 271 272 272 272 273 273 273 273 273 273 274 274 274 274 274 274 274 275 275 275 275 275 276 276 275 275 275 275 275 275 275 274
268 268 268 269 269 269 269 269 269 269 269 270 270 269 270 270 270 269 269 269 269 269 269 269 269 269 269 269 269 269 269 269 269 269 269 269 269 269 270 270 270 270 270 270 270 271 271 271 271 271 271 271 271 271 271 271 272 272 272 272 272 272 273 273 273 273 273 273 273 274 274 274 274 274 274 274 274 274 274 274 274 274 274 274 273
268 268 268 268 268 268 268 268 268 268 269 269 269 269 269 269 269 269 269 269 269 269 269 269 269 269 269 269 269 269 269 269 269 269 269 269 270 270 270 270 270 270 270 270 270 270 271 271 271 271 271 271 271 271 271 271 271 272 272 272 272 272 272 272 272 272 272 272 273 273 273 273 273 274 274 274 274 273 273 273 273 273 273 272 272
267 268 268 268 268 268 268 268 268 268 268 268 268 268 269 269 269 269 269 269 269 268 268 268 269 269 269 269 269 269 269 269 269 269 269 270 270 270 270 270 270 270 270 270 270 270 270 270 271 271 271 271 271 271 271 271 271 271 272 272 272 272 272 272 272 272 272 272 272 272 272 273 273 273 273 273 273 273 273 272 272 272 272 272 272
267 267 268 268 268 268 267 267 267 267 267 267 267 268 268 268 269 269 269 269 268 268 268 268 268 268 268 269 269 269 269 269 269 269 269 269 269 270 270 270 270 270 270 270 270 270 270 270 270 271 271 271 271 271 271 271 271 271 271 272 272 272 272 272 272 272 272 272 272 272 272 272 272 272 272 272 272 272 272 272 271 271 271 271 271
Wind_Speed
7 8 8 9 9 9 10 10 10 11 11 12 12 12 13 14 14 15 16 16 17 17 17 17 18 19 19 20 21 23 24 25 26 27 27 27 27 27 28 28 29 30 30 30 30 30 30 31 31 30 29 30 30 29 30 31 34 37 38 39 39 39 38 38 43 51 51 48 47 47 44 43 45 46 46 44 42 40 39 38 38 40 42 41 40
6 7 8 9 10 10 11 12 13 14 15 15 16 17 17 18 18 18 19 19 20 20 21 21 21 22 22 23 23 23 24 25 26 28 29 30 31 31 31 31 32 32 32 33 33 33 34 34 34 33 32 32 33 31 30 29 30 32 35 37 40 41 39 38 41 47 51 50 47 47 46 45 46 47 47 48 46 43 42 41 40 40 40 41 41
6 7 8 9 10 11 12 13 14 16 17 17 18 19 19 20 21 22 22 22 22 22 23 24 24 25 25 26 27 27 28 28 29 30 31 32 34 34 35 36 37 37 37 37 36 36 36 37 37 36 35 35 36 34 33 32 31 31 32 32 37 40 40 40 40 44 49 49 47 48 47 47 48 48 47 48 47 46 45 44 42 41 41 41 41
7 8 9 10 12 13 15 16 17 18 19 20 21 21 22 23 24 25 25 26 26 26 27 28 29 29 30 31 31 32 33 33 34 34 35 35 37 37 38 39 40 41 41 42 41 41 40 40 40 39 38 39 39 38 36 35 34 33 34 32 32 35 37 40 42 43 45 47 48 47 46 47 48 48 46 46 47 48 48 46 44 43 43 43 42
9 10 11 12 14 16 17 19 20 21 23 23 24 24 25 26 26 27 28 29 30 30 31 32 33 34 36 37 38 38 39 39 40 40 41 40 41 41 41 41 41 42 43 44 44 44 44 45 44 42 41 41 42 40 38 37 36 35 36 36 34 33 33 35 40 43 44 47 49 47 45 46 47 48 47 47 46 47 48 48 47 46 46 46 45
12 13 14 15 16 18 19 21 22 23 25 25 26 27 27 28 29 30 30 31 32 33 34 35 36 38 39 41 43 44 45 46 46 47 47 47 46 46 45 44 44 43 44 44 44 44 45 46 47 46 45 44 44 43 41 39 38 37 37 38 37 35 34 33 35 38 43 47 49 48 46 45 46 47 48 48 48 48 47 48 49 49 49 49 48
15 16 17 18 19 20 22 23 25 26 27 27 28 28 29 30 31 32 33 34 34 35 37 38 39 41 42 44 45 47 48 49 51 51 51 51 50 49 49 49 48 47 46 46 45 45 45 46 47 48 48 47 47 46 45 43 41 40 39 38 38 38 38 36 34 35 39 44 48 49 48 46 45 45 47 47 49 50 50 49 50 51 50 50 48
19 20 20 20 22 23 25 27 28 29 30 30 30 30 30 31 32 33 35 36 36 38 39 40 41 43 44 46 47 49 50 51 52 53 52 52 51 50 50 50 50 50 49 49 48 48 47 47 47 48 48 49 49 48 48 46 45 44 42 39 37 37 39 39 38 36 37 40 44 47 48 47 45 45 44 45 48 53 54 53 52 51 50 48 48
21 22 21 22 24 26 28 30 31 32 33 33 32 32 32 33 33 34 35 37 38 39 41 42 44 45 46 47 49 50 51 52 52 52 52 51 51 50 49 48 48 48 49 50 50 50 50 50 49 49 49 49 49 49 49 49 48 47 46 43 39 38 38 39 40 39 39 40 43 44 45 47 48 46 45 47 50 54 55 54 55 54 51 49 49
22 22 22 23 25 28 30 31 33 34 35 35 34 34 34 34 35 35 36 37 39 40 42 43 45 46 47 48 49 50 51 52 52 52 51 51 50 49 48 48 47 47 48 49 51 51 50 50 50 50 50 50 50 50 50 51 50 49 49 47 44 41 39 40 41 41 41 42 43 44 44 47 49 49 49 50 49 49 51 54 56 56 53 52 53
22 23 23 24 27 29 31 32 34 35 35 35 35 35 35 36 37 38 38 39 40 41 43 44 45 46 47 48 49 50 50 51 51 52 52 51 50 48 48 49 49 49 49 50 52 53 52 52 51 50 50 51 51 51 51 51 51 51 51 50 48 46 43 42 43 43 43 43 44 45 45 47 49 48 49 49 47 47 49 52 54 55 55 56 57
23 23 24 26 29 30 32 33 34 35 35 35 35 36 38 38 39 40 41 42 42 43 44 44 45 46 47 48 49 50 51 52 52 52 53 53 51 48 47 49 51 51 52 51 53 54 54 54 53 52 52 51 51 52 52 53 53 53 52 52 51 49 47 46 45 45 45 45 46 46 47 48 49 48 46 47 47 46 47 49 52 55 56 57 58
23 24 26 28 30 31 32 33 34 34 34 35 37 38 39 40 41 42 42 43 43 44 45 45 46 47 48 49 51 53 54 54 53 53 53 53 52 49 48 51 53 54 55 55 54 55 55 54 54 55 54 52 50 50 50 52 52 53 53 53 52 52 51 50 48 47 47 48 48 49 49 48 49 48 46 45 45 45 46 48 51 54 55 57 59
24 26 29 30 31 31 32 33 33 34 36 37 38 39 39 41 41 42 42 43 44 45 46 47 48 49 49 51 53 55 56 55 53 53 53 52 50 48 48 51 53 54 56 56 56 55 55 54 55 56 56 54 51 50 49 48 49 50 51 52 54 55 54 53 51 50 49 50 51 52 51 49 49 48 46 45 44 46 48 49 50 52 54 56 56
27 29 30 30 30 31 31 32 34 36 37 38 39 39 40 41 41 41 42 43 44 45 47 48 49 50 50 51 53 56 56 52 49 50 49 47 45 44 44 47 50 53 56 56 55 56 56 56 55 55 56 55 53 50 48 46 46 46 48 50 53 55 56 56 55 53 51 51 52 53 53 51 49 47 46 47 47 48 48 48 47 47 47 49 51
30 30 30 30 30 30 32 33 35 37 37 38 39 40 41 41 41 42 42 43 45 46 47 48 49 50 51 51 52 54 53 48 44 44 43 41 40 40 42 45 47 50 52 53 52 53 53 52 51 51 52 54 53 50 45 43 44 46 48 49 51 52 55 57 57 57 55 53 52 52 53 52 50 47 46 46 48 48 47 45 43 42 43 46 49
31 31 30 30 30 31 33 35 36 37 38 39 40 41 41 41 41 42 43 45 46 46 47 48 48 49 51 50 49 51 50 45 42 41 39 37 37 37 38 40 42 44 46 47 46 46 46 45 44 45 48 51 52 49 43 41 45 48 50 51 51 52 54 56 57 57 57 56 55 53 53 52 51 48 46 45 47 48 46 45 44 43 44 47 50
31 30 30 30 31 33 34 35 36 37 38 39 40 41 41 41 42 42 43 45 46 47 47 49 49 48 48 48 46 46 47 44 40 39 37 35 33 33 34 36 38 40 41 41 40 40 40 38 36 36 40 42 43 41 38 38 42 46 48 49 51 52 54 55 56 57 56 55 55 54 54 53 51 50 48 45 45 47 47 48 48 46 46 49 52
31 30 30 31 32 34 35 35 36 37 39 39 40 40 41 41 42 42 43 45 46 47 47 49 50 48 45 45 43 42 43 42 38 36 35 31 28 29 31 35 37 38 39 40 40 39 40 40 38 36 37 39 39 38 37 36 39 42 45 46 50 54 55 53 52 53 54 53 54 54 55 54 52 51 49 47 46 47 49 51 50 48 49 52 52
29 30 30 32 33 34 35 35 36 37 38 39 39 40 40 41 42 42 43 44 45 47 47 47 48 46 43 42 41 39 39 39 36 33 31 28 25 26 30 34 37 39 40 42 43 43 41 40 39 35 34 36 37 37 36 36 37 40 43 45 50 55 56 53 50 49 50 52 53 53 54 55 53 51 50 49 48 47 49 50 51 50 51 52 51
28 29 31 33 34 34 34 35 36 37 37 38 39 40 40 40 41 42 43 44 45 46 46 44 45 45 42 40 39 37 35 35 34 31 29 27 25 26 30 34 36 39 42 43 43 44 42 40 38 36 34 36 37 37 37 37 37 39 42 45 48 49 49 51 51 49 49 51 52 53 53 54 53 52 51 51 49 48 47 49 51 52 53 53 52
28 30 32 33 34 34 34 35 35 36 36 37 38 39 39 39 40 40 41 43 44 44 44 42 42 43 41 39 37 34 32 32 31 30 29 28 27 27 30 33 35 37 41 43 43 44 44 44 43 42 39 38 39 39 39 39 39 40 42 43 44 44 44 46 49 50 51 51 52 52 52 53 53 53 52 51 50 48 46 46 48 50 53 55 54
30 32 33 33 33 33 34 35 34 35 35 36 38 39 38 38 38 39 39 41 42 43 42 41 41 41 41 38 35 33 31 31 30 30 30 31 30 29 29 31 32 34 38 42 43 44 45 45 44 43 40 39 39 39 40 40 40 42 43 43 44 44 44 44 46 49 52 54 53 53 54 53 53 53 53 51 50 48 46 44 44 46 49 52 54
31 33 33 33 33 33 34 34 33 34 34 36 37 37 37 37 38 38 37 38 40 41 40 39 39 40 40 38 35 33 33 33 33 33 34 35 33 31 28 28 29 31 34 38 39 41 42 42 41 40 40 40 40 40 41 42 42 42 42 42 43 44 45 46 46 47 51 55 55 54 54 54 53 53 53 51 49 46 45 43 42 43 44 46 48
32 33 33 33 33 33 33 33 32 33 34 35 35 36 35 36 37 37 36 36 37 38 39 38 38 38 39 40 39 38 37 38 38 38 38 38 35 32 30 30 31 32 34 37 38 40 40 39 38 38 38 38 39 40 40 40 39 38 39 40 41 43 45 47 46 45 48 54 57 55 54 55 54 53 52 50 47 45 44 43 42 41 40 41 43
32 32 32 32 32 32 33 32 32 32 33 33 33 33 33 34 35 35 35 34 35 36 37 37 37 38 40 41 42 43 42 42 42 42 41 40 37 35 36 37 38 38 38 40 41 42 42 40 38 38 38 38 39 40 41 40 38 38 39 39 40 42 44 46 47 46 46 51 57 57 54 53 53 51 49 48 46 45 44 42 41 40 38 38 39
32 32 31 31 31 31 32 32 32 32 32 32 32 32 31 31 33 33 33 33 34 35 36 36 37 39 42 43 44 44 44 44 44 43 41 40 40 41 41 42 42 42 43 44 44 45 45 43 41 40 40 40 41 42 42 42 41 40 40 39 40 41 42 44 46 47 47 49 55 57 52 49 49 49 47 47 46 45 44 42 41 40 38 37 38
31 31 31 31 31 31 31 31 31 32 32 31 31 31 30 29 30 31 30 31 34 36 36 37 38 40 42 43 44 45 45 44 43 42 41 40 41 41 40 41 42 43 45 46 46 46 45 44 43 42 41 42 44 44 44 43 43 43 42 41 41 41 41 42 43 45 45 46 52 54 49 44 44 46 46 45 45 45 44 42 41 40 39 37 38
31 30 30 30 30 30 30 30 30 31 31 31 30 29 28 28 29 31 30 29 31 34 35 35 37 38 39 41 42 43 44 43 41 40 38 36 35 35 37 38 39 40 41 41 42 43 42 42 42 42 42 43 44 45 46 46 47 47 45 43 41 40 40 41 42 42 41 42 47 52 49 43 41 41 42 43 43 44 44 42 41 40 39 38 38
30 30 29 29 29 30 30 29 29 29 30 30 30 29 27 24 24 28 30 29 28 30 31 32 33 34 36 37 37 37 39 40 38 37 35 34 33 34 35 36 35 36 36 35 37 39 40 40 41 41 42 44 45 46 48 49 48 47 45 43 41 40 39 40 40 38 38 39 44 48 45 42 40 38 39 40 41 42 42 42 41 40 39 39 39
30 30 29 29 29 29 29 29 29 29 28 28 29 30 29 25 21 20 25 28 28 29 29 29 29 29 31 34 34 34 34 35 35 35 36 35 34 34 34 34 33 34 35 35 37 40 40 41 43 43 43 44 44 46 47 48 47 46 45 43 41 40 40 39 37 35 34 36 42 46 45 43 41 39 39 40 41 41 41 41 40 40 40 40 40
30 29 29 29 28 28 28 28 28 28 27 27 27 28 30 30 26 21 20 22 26 29 30 29 28 28 29 30 32 33 33 33 34 35 35 34 33 32 33 34 34 34 35 35 38 41 41 42 44 44 44 44 45 46 48 48 47 46 44 43 42 40 39 38 36 33 32 31 35 41 44 44 43 40 40 41 41 41 41 41 41 40 40 40 40
28 28 28 28 28 27 27 27 27 27 26 26 26 26 28 31 32 30 25 22 21 22 24 27 29 31 31 29 29 30 31 31 32 32 32 33 33 32 32 33 34 34 34 34 36 38 38 38 39 40 42 44 46 47 47 47 47 46 44 43 41 38 37 36 34 32 31 29 28 30 35 38 39 37 37 38 40 41 41 42 42 41 40 40 40
26 26 26 27 28 27 26 26 26 26 25 25 25 25 26 28 31 34 34 31 27 22 19 20 24 29 32 30 28 29 29 30 30 29 30 33 34 33 33 33 32 30 30 29 29 30 32 33 35 38 41 43 44 45 45 45 45 44 43 42 39 36 35 35 33 31 29 27 26 26 27 32 35 35 36 37 38 40 41 42 42 41 41 41 41
24 24 24 25 26 26 25 25 24 24 24 23 23 24 26 27 29 31 33 34 34 32 28 24 23 26 29 30 29 29 30 30 29 29 30 31 31 30 31 32 30 28 26 24 25 27 29 31 34 37 39 41 41 41 42 42 41 39 38 37 36 34 32 33 33 31 28 26 25 24 24 28 32 34 36 37 38 39 41 42 43 43 42 42 41
23 22 23 24 25 25 24 24 23 22 22 22 22 23 24 26 28 29 30 31 32 33 32 30 27 26 27 27 28 29 29 29 30 30 30 29 27 26 26 27 27 27 25 24 24 26 28 31 34 36 37 37 38 40 40 38 35 32 29 28 29 28 28 29 31 30 28 27 26 25 24 26 29 32 35 37 37 38 39 40 41 41 41 41 41
22 22 22 23 23 23 22 22 21 21 20 21 21 22 23 25 26 27 28 29 29 29 29 28 28 28 28 27 28 28 29 30 30 29 27 25 23 22 23 24 25 25 25 25 26 27 28 30 32 34 35 35 37 38 37 34 31 30 27 23 20 20 23 25 27 27 28 28 26 24 24 25 27 30 31 32 34 37 38 38 38 39 40 41 41
21 21 22 23 22 22 21 20 20 19 19 19 20 21 22 23 25 26 26 26 26 26 26 26 27 28 29 29 29 31 32 32 30 29 26 24 23 22 22 23 23 24 25 25 25 26 27 28 30 32 33 34 35 36 35 32 29 28 27 24 20 17 19 23 25 26 27 28 26 24 24 25 26 27 28 28 31 33 35 35 37 39 41 41 41
20 20 21 22 21 21 20 20 18 18 17 17 18 20 21 22 23 23 24 24 24 24 24 25 26 27 28 29 31 32 33 32 31 30 29 27 25 23 23 23 23 23 24 24 25 25 26 27 28 29 31 32 32 32 33 32 29 26 25 25 24 22 22 25 26 27 28 28 27 27 27 26 25 26 27 28 30 31 33 36 39 41 42 42 41
19 19 20 20 20 19 19 18 17 17 16 16 17 19 20 20 21 21 21 22 22 23 23 24 25 25 26 27 28 29 31 31 32 31 30 29 26 25 23 23 23 24 24 24 25 26 26 26 27 28 28 28 28 28 28 28 27 25 23 22 23 25 26 27 27 26 25 26 27 28 28 27 26 26 28 29 30 33 36 39 41 42 42 41 41
19 19 18 18 19 18 18 17 16 15 15 16 17 17 18 18 19 19 19 20 21 22 22 22 23 23 24 25 24 25 27 30 31 31 31 31 30 28 26 25 24 24 24 25 25 26 26 27 27 27 27 27 26 25 24 23 22 21 20 20 20 20 22 23 24 24 24 25 26 26 27 26 26 26 28 29 31 34 37 38 38 39 38 38 38
19 18 17 18 18 17 17 16 15 14 14 15 15 16 17 17 17 18 18 18 19 20 20 21 21 21 22 23 23 24 26 28 29 30 31 31 31 31 30 27 25 24 23 23 24 24 25 26 27 27 27 27 25 24 23 22 21 20 19 18 18 18 18 19 20 21 22 23 24 24 24 24 25 25 27 28 30 32 34 35 35 35 35 35 35
19 18 17 17 17 17 16 15 14 14 14 14 15 15 16 16 16 17 17 17 18 18 19 19 20 20 20 21 22 24 25 26 27 28 29 30 31 32 32 31 29 27 24 23 23 23 24 24 25 25 25 25 25 24 22 21 21 20 18 17 16 16 17 17 17 18 19 19 19 20 20 21 22 23 25 26 27 29 30 31 31 31 31 32 32
18 18 17 17 16 15 15 14 14 14 14 14 14 15 15 15 15 16 16 16 16 16 17 17 18 19 20 21 22 23 24 26 27 27 28 29 29 30 31 31 31 30 28 26 25 24 23 23 23 22 22 22 23 23 22 21 20 19 18 16 14 13 13 13 14 15 15 15 16 16 17 17 18 19 21 22 24 25 26 27 28 28 29 29 29
18 17 17 16 16 14 14 13 13 13 14 14 13 13 14 14 15 15 15 15 15 15 15 16 17 18 19 20 21 23 24 25 26 27 27 28 28 29 29 30 30 30 30 29 28 26 25 25 24 23 22 21 21 20 20 20 19 19 18 16 15 14 13 12 12 12 12 12 12 12 13 14 15 16 17 18 20 21 22 23 24 25 26 27 28
18 17 17 16 15 14 13 13 12 13 13 14 13 13 13 13 14 14 14 14 14 14 14 15 16 17 18 20 21 22 23 24 25 26 27 27 28 28 28 28 28 29 29 29 29 29 28 27 27 26 25 24 22 21 20 19 18 18 17 16 15 14 13 12 12 12 11 11 10 9 10 10 11 12 13 14 16 17 18 19 21 22 23 25 25
17 16 16 16 14 13 12 12 12 12 12 12 13 13 13 13 13 13 13 13 13 13 13 14 15 16 17 18 19 20 21 22 23 24 25 26 27 28 28 28 28 28 28 28 28 29 29 29 29 29 28 28 27 26 24 22 20 19 18 17 17 16 14 13 13 13 12 11 10 8 7 7 7 9 10 11 13 14 15 17 18 20 21 22 23
17 16 16 15 14 13 12 12 12 12 11 11 12 12 12 12 12 12 12 12 12 12 13 13 14 15 15 16 17 18 19 20 21 22 23 24 25 26 27 28 28 29 29 29 29 28 29 29 30 30 30 30 31 31 30 28 26 24 23 21 20 19 17 16 15 14 13 11 10 7 6 5 4 6 7 9 10 12 13 15 17 18 19 20 21
16 16 16 15 13 12 12 12 12 12 11 11 10 11 11 12 12 12 12 12 12 12 13 13 14 14 14 15 15 16 17 18 19 20 21 22 23 24 25 26 26 27 28 28 29 29 29 29 29 30 31 31 31 32 32 32 31 30 28 26 24 22 21 19 18 17 15 13 10 8 6 3 1 4 5 7 8 10 12 14 15 17 18 19 20
16 16 15 14 13 12 12 12 12 12 12 11 10 10 10 11 11 12 12 12 11 12 12 13 13 14 14 14 15 16 16 17 18 18 19 20 20 21 22 23 24 25 26 27 27 28 28 29 29 29 29 30 30 31 31 31 31 31 30 29 28 26 25 23 22 20 17 15 12 9 7 4 1 3 5 6 8 9 11 13 15 16 17 19 20
16 15 15 14 13 12 12 12 12 12 12 11 11 11 11 11 11 12 12 12 12 12 12 12 13 14 14 14 15 15 16 16 17 17 18 18 19 20 20 21 22 23 23 24 25 26 27 27 28 28 28 28 29 29 29 29 29 29 28 28 28 28 27 26 25 23 20 18 15 12 9 6 5 5 6 7 8 9 11 13 14 15 16 18 18
Wind_Direction
10 9 7 6 1 356 354 351 349 346 343 342 339 338 336 334 332 331 331 330 329 328 326 324 321 319 317 316 316 317 318 319 320 320 320 320 320 319 318 317 316 316 315 314 313 313 310 307 306 307 308 306 302 298 290 282 276 270 266 264 262 260 262 264 266 268 268 268 269 269 268 266 264 263 263 262 260 258 257 256 256 254 251 248 247
359 356 354 350 346 344 342 340 340 338 338 338 337 336 335 333 332 330 329 328 327 327 326 324 323 321 320 319 318 317 316 316 316 315 315 316 316 317 317 316 314 313 312 311 311 311 309 307 305 305 305 303 301 301 300 296 290 282 275 270 266 263 262 263 266 268 269 267 267 267 267 266 264 262 262 262 262 260 259 256 255 254 253 250 247
336 337 337 336 334 335 335 334 335 334 333 333 333 332 332 331 330 329 328 327 326 326 324 322 321 320 319 319 318 318 317 316 315 313 312 312 312 311 312 312 311 310 309 309 308 307 306 305 304 304 304 301 299 299 299 298 297 294 288 281 274 269 265 263 264 267 269 269 268 266 265 265 264 263 263 263 263 263 261 258 256 254 253 251 247
323 327 329 331 330 329 329 329 330 329 328 328 328 327 327 327 327 326 325 324 323 322 322 321 320 319 318 317 317 317 316 315 314 312 311 310 309 308 307 306 306 305 305 305 305 304 302 301 300 301 301 298 297 296 296 296 296 295 294 291 285 279 273 267 265 265 268 270 269 267 266 264 263 263 263 263 262 261 260 258 256 253 251 250 247
320 324 325 327 326 325 324 324 324 324 323 323 323 323 323 323 323 322 321 320 320 319 319 318 318 318 317 317 316 316 315 314 312 311 310 309 308 306 305 303 301 300 299 299 299 299 298 297 296 296 295 294 294 294 293 293 294 293 292 291 291 288 282 274 269 266 267 268 268 268 268 265 262 261 261 260 260 260 258 256 254 251 249 248 245
316 317 317 318 319 319 320 320 320 320 319 319 320 320 320 320 319 319 318 317 317 317 317 317 316 316 315 316 316 315 314 313 312 311 310 309 307 306 304 302 300 298 296 294 293 292 291 291 291 291 289 289 289 290 290 290 290 289 289 289 290 290 288 282 275 270 267 266 267 268 268 266 264 261 259 258 259 259 259 257 253 249 246 245 244
308 309 310 312 314 316 318 319 319 318 318 318 318 318 318 317 317 316 316 316 316 316 315 315 315 315 314 314 313 313 312 311 311 311 310 309 308 306 304 302 300 297 295 293 290 288 286 285 285 285 285 285 285 286 286 287 286 285 284 285 286 287 287 286 282 275 270 268 267 266 266 266 266 263 259 258 258 258 258 257 254 249 245 243 243
300 301 304 309 313 316 318 319 319 318 317 317 316 316 315 314 314 314 314 314 314 314 314 313 313 312 312 311 311 310 309 309 308 308 308 308 308 306 305 303 300 298 295 293 290 288 286 283 281 280 280 281 281 282 282 283 283 282 281 280 280 280 282 284 283 280 275 271 269 267 266 266 265 264 261 256 253 252 252 253 253 252 249 245 244
291 294 299 305 311 314 316 316 317 317 316 315 314 313 312 311 311 311 311 311 311 311 311 311 310 310 309 309 308 307 307 306 306 306 306 306 306 305 304 303 301 299 296 294 291 288 286 284 282 280 278 276 276 277 277 278 279 280 279 278 277 275 274 276 278 279 277 273 271 270 267 265 263 262 260 255 252 251 251 251 252 253 251 249 247
285 289 295 302 308 311 312 313 314 313 312 311 310 309 308 308 308 307 307 308 308 308 308 308 308 308 307 307 306 306 305 305 305 305 305 305 304 303 301 299 298 296 295 293 291 289 287 285 283 281 279 276 274 272 272 273 274 276 276 276 276 274 272 271 271 273 274 273 272 270 266 263 262 260 258 258 256 255 253 252 252 252 251 249 248
279 283 289 297 303 306 308 310 310 309 307 306 306 306 306 305 305 305 305 305 305 306 306 306 306 306 306 306 305 304 303 303 303 302 301 301 300 299 298 296 295 293 292 290 289 289 287 285 284 282 280 278 277 274 272 271 270 271 272 272 273 272 271 269 268 268 269 270 271 270 265 263 265 262 258 258 258 255 254 254 252 252 249 248 248
274 277 284 294 300 302 304 305 305 304 304 304 304 304 304 304 305 305 305 306 306 306 307 307 307 307 306 305 305 304 303 302 301 299 298 297 296 296 295 293 291 290 289 288 287 287 286 285 284 282 280 278 277 276 275 273 271 269 269 270 270 269 268 266 265 266 266 267 267 267 265 265 266 263 258 258 256 254 254 253 252 251 249 248 249
271 277 286 294 297 299 300 302 302 303 303 303 303 303 304 304 305 305 306 306 307 307 308 308 308 308 307 306 305 304 304 302 300 299 297 295 294 294 292 290 288 287 286 285 284 284 284 283 283 282 280 279 277 275 275 275 274 272 270 270 269 268 266 264 262 262 263 264 264 264 264 265 265 264 261 258 257 255 253 251 251 250 249 248 250
276 284 290 293 295 297 299 300 301 302 302 302 303 304 304 305 305 305 306 307 308 308 309 309 309 309 308 306 306 305 304 302 301 299 298 296 295 294 292 289 287 285 284 283 283 283 282 282 282 281 279 278 276 274 273 274 275 275 274 272 269 267 266 265 263 260 259 260 260 262 264 263 263 266 265 259 256 255 254 252 251 250 249 251 254
286 290 291 293 295 297 299 300 300 302 303 304 305 306 306 306 306 307 307 308 309 310 310 310 309 309 308 307 306 305 304 304 303 301 299 298 296 294 290 287 285 284 284 283 282 282 282 282 282 281 280 279 276 274 273 273 273 273 274 273 271 269 267 265 263 261 259 258 258 260 263 264 264 265 264 260 257 256 256 256 256 255 255 256 256
291 292 293 296 297 298 299 301 302 304 305 306 307 307 307 307 308 309 309 310 310 310 310 310 309 309 309 308 308 306 305 306 306 304 303 301 298 294 291 289 288 287 286 285 284 283 282 281 281 280 279 278 277 275 274 273 271 269 269 269 270 270 269 266 263 262 260 258 258 258 260 262 264 264 263 260 258 256 256 256 256 254 252 251 251
291 293 295 296 297 300 302 304 306 307 308 308 308 308 308 308 310 310 310 310 310 310 311 311 311 312 311 311 310 308 306 308 309 307 306 304 302 299 296 294 293 291 290 290 289 288 286 285 284 283 282 281 280 279 278 275 272 270 268 267 267 268 268 266 264 264 262 260 258 257 257 258 260 262 261 258 256 255 252 250 249 247 243 242 244
294 295 296 297 300 303 306 308 309 309 309 309 309 308 309 310 311 311 311 310 311 312 314 314 314 314 314 313 312 309 307 309 311 309 307 306 304 301 299 297 295 294 294 294 293 291 290 289 288 287 286 286 286 286 283 279 275 272 269 268 267 265 265 265 264 264 264 263 260 258 256 255 255 257 258 256 253 251 249 247 246 244 240 239 241
296 296 297 300 304 306 308 310 310 310 310 309 309 309 310 311 311 311 311 312 314 315 317 316 316 315 315 313 311 309 308 309 311 310 308 308 306 303 299 297 295 294 294 294 293 293 293 293 292 290 287 287 288 287 284 281 277 274 271 269 267 264 261 262 264 265 264 263 262 259 257 255 254 254 255 254 251 248 246 246 246 242 239 240 241
295 296 299 303 306 308 309 310 310 310 310 309 310 310 311 311 311 312 313 315 317 318 318 317 316 315 314 312 310 309 311 312 313 312 309 308 307 304 299 296 295 295 295 295 296 297 297 297 296 294 291 290 289 287 285 282 277 275 273 271 268 265 262 261 262 264 264 262 261 260 259 257 255 254 254 254 252 248 244 244 243 241 240 241 240
295 298 301 305 307 309 310 311 310 310 310 310 310 310 310 311 312 315 317 318 319 318 318 317 315 313 312 311 311 313 315 314 314 313 311 309 310 307 300 297 297 298 297 298 298 297 296 295 294 293 292 290 289 287 285 283 280 277 275 272 271 271 269 265 261 261 263 262 259 258 258 258 256 255 254 254 253 250 246 243 242 241 240 240 239
298 301 304 307 309 310 311 311 311 311 311 311 310 309 311 313 315 318 320 320 319 318 317 316 314 312 311 312 315 318 319 317 316 316 314 313 314 311 303 298 297 297 297 297 297 296 296 296 296 296 293 290 289 286 283 282 280 277 274 273 273 272 271 268 264 260 259 260 258 255 254 255 254 253 253 252 252 251 249 245 243 243 242 241 240
300 304 307 308 310 311 311 311 311 311 312 311 309 310 314 316 319 320 321 321 319 317 316 315 314 312 313 316 320 322 321 320 320 320 319 319 319 317 310 302 296 294 294 295 297 298 299 300 301 303 301 296 292 289 285 283 282 279 276 275 274 272 271 271 268 262 257 256 256 253 250 250 250 250 251 251 250 250 250 248 246 245 244 244 242
302 305 308 309 311 312 311 311 311 312 311 310 310 313 317 319 321 322 322 322 319 316 315 315 315 315 317 320 324 326 325 325 324 324 324 323 321 320 317 311 305 300 297 297 300 303 305 307 309 310 307 302 295 289 286 284 283 282 280 279 275 272 270 271 271 266 258 254 254 252 247 245 246 247 248 249 248 249 251 251 249 248 248 248 246
303 306 308 310 312 311 310 311 311 311 311 311 313 316 320 321 322 323 323 322 318 316 316 317 317 319 322 325 328 329 329 327 326 325 325 323 321 320 319 317 314 310 303 299 301 304 307 309 309 305 302 299 296 292 290 288 284 282 282 281 277 272 269 269 271 270 261 253 252 252 247 243 243 245 247 248 249 249 251 252 251 250 250 250 250
305 307 309 311 312 311 310 310 311 311 311 313 316 319 322 322 322 323 323 321 319 317 318 319 322 325 326 326 326 326 326 325 323 321 321 320 321 322 320 316 315 312 305 301 301 303 304 305 304 302 301 300 299 297 295 291 287 284 281 279 278 275 270 267 270 273 267 256 251 252 249 243 241 244 245 246 247 248 248 249 250 250 248 248 249
306 308 310 311 311 311 311 311 311 312 313 316 318 320 323 324 323 323 324 322 321 321 322 324 327 326 324 322 321 321 320 319 317 317 318 318 319 320 317 315 314 312 308 306 306 306 306 305 304 303 303 302 301 298 294 290 288 287 285 282 279 277 273 270 270 272 272 262 252 251 250 245 240 241 242 242 243 245 246 246 246 247 246 245 246
307 308 311 312 311 311 311 312 312 313 315 317 319 321 324 325 323 323 325 325 324 326 328 327 326 322 318 317 317 316 316 316 316 317 317 316 316 315 314 312 312 310 308 308 308 307 306 306 305 304 303 303 301 298 294 292 290 289 288 286 283 279 276 274 273 273 273 265 252 249 250 245 238 237 238 239 242 244 245 244 243 245 246 244 243
307 309 311 311 311 311 311 311 312 314 315 317 319 321 325 327 326 325 327 329 329 329 326 321 317 316 313 312 313 312 312 313 314 314 313 313 312 311 309 308 307 306 305 306 305 304 304 304 304 304 303 300 298 295 293 292 290 289 287 286 284 279 276 275 274 275 276 266 252 247 248 244 239 237 236 237 241 243 244 243 242 243 243 243 242
307 310 311 311 310 310 310 311 313 315 316 318 319 320 323 328 329 327 327 329 331 332 328 321 317 314 310 308 309 309 307 309 310 310 311 312 311 308 307 307 306 304 303 301 300 300 301 301 301 300 298 296 295 294 294 293 292 290 288 285 283 280 277 275 274 278 281 269 251 245 244 241 238 238 237 237 239 241 242 241 241 240 239 240 241
308 309 310 309 309 309 310 311 314 316 317 319 320 320 322 324 328 329 328 328 330 334 335 332 329 324 317 312 311 311 311 313 313 311 312 311 309 307 307 307 306 304 301 300 300 300 300 300 300 299 298 297 297 297 297 296 294 291 288 285 283 281 279 277 276 281 284 268 247 240 242 242 241 240 238 237 237 238 239 239 238 238 239 241 241
307 309 309 307 307 309 309 311 314 316 317 318 320 322 323 325 327 329 327 328 333 337 339 338 335 332 329 324 320 318 319 320 317 314 313 313 313 312 310 307 304 301 298 298 298 297 296 297 298 299 301 302 302 301 300 297 295 292 288 285 283 282 279 276 276 282 286 273 249 238 238 240 241 240 237 236 236 235 236 237 237 237 239 241 242
306 307 306 305 306 307 308 311 314 316 317 319 321 324 326 328 330 332 331 334 339 342 341 340 339 336 335 334 331 326 324 322 319 319 320 321 320 317 312 306 301 298 297 297 297 297 298 300 302 305 307 308 306 303 301 298 296 293 288 284 282 281 277 274 275 282 286 278 261 248 241 238 239 238 237 237 236 233 233 236 236 236 238 240 241
304 304 303 303 304 306 309 312 314 315 316 319 322 324 328 331 334 335 335 338 344 348 348 345 343 340 338 337 336 332 328 326 326 328 328 326 322 318 312 307 303 300 298 300 303 306 309 311 314 315 315 315 312 309 306 303 299 294 288 283 282 280 276 272 273 281 284 275 264 259 253 246 244 243 241 240 238 234 234 236 237 236 237 239 239
301 300 299 300 301 304 308 311 313 314 315 318 322 326 330 333 335 336 336 337 341 345 348 349 349 345 341 339 338 335 332 331 332 334 330 324 320 318 316 315 314 311 307 309 315 318 319 320 322 323 323 323 323 321 317 312 306 298 291 284 281 279 275 270 269 276 282 275 264 264 264 256 250 247 244 241 238 235 233 235 236 237 239 239 239
299 297 297 298 299 303 307 310 312 313 315 319 324 327 331 334 336 337 338 340 341 342 345 347 348 348 348 346 343 340 339 339 338 335 330 325 322 323 325 327 326 323 319 321 326 327 326 326 328 329 330 333 336 334 330 323 316 309 300 291 284 278 274 270 267 272 279 276 267 265 267 262 254 248 244 240 239 238 237 236 236 237 239 240 238
297 296 296 297 299 302 306 309 311 313 316 320 325 328 332 335 337 338 341 343 344 344 346 349 351 353 355 355 350 348 349 350 344 337 333 331 330 332 336 338 335 331 328 330 333 332 329 329 331 333 336 340 342 341 339 334 326 318 311 304 293 280 271 269 269 273 278 277 268 262 264 263 255 248 245 242 239 237 236 238 240 242 243 241 236
295 295 295 297 299 303 307 309 311 313 316 321 325 329 333 337 339 342 344 346 347 348 351 355 358 358 357 357 357 357 357 355 350 345 343 342 341 342 342 341 340 338 334 333 334 334 332 332 334 336 339 341 341 342 342 341 336 326 316 310 304 290 277 274 274 276 277 274 266 262 265 264 255 250 250 248 243 237 235 237 241 242 240 235 229
292 292 293 295 300 304 307 309 310 312 317 322 325 329 334 338 341 344 347 349 350 352 355 360 3 3 1 1 1 0 359 359 358 356 354 352 350 348 346 343 343 343 340 336 336 337 336 336 338 339 339 340 340 340 341 342 342 336 325 313 303 294 286 283 282 281 280 275 268 264 265 262 254 249 247 245 244 242 241 242 242 240 236 231 227
289 288 290 293 298 302 304 307 310 314 319 324 326 329 334 338 343 346 348 350 352 354 357 2 5 6 7 8 6 360 359 4 8 7 4 2 360 357 354 352 350 349 347 344 343 343 342 342 342 341 341 341 341 340 340 340 339 337 332 322 310 301 295 293 291 289 286 281 272 266 265 264 261 256 252 249 247 246 244 243 241 238 234 231 226
286 287 289 292 296 299 302 305 310 315 320 324 325 328 332 337 341 344 348 351 353 354 357 2 6 8 10 14 14 8 6 11 15 16 16 15 11 8 6 3 358 355 353 351 350 350 348 347 345 344 343 342 341 342 342 342 340 337 334 331 327 319 312 306 300 293 287 281 275 270 269 271 269 265 259 255 251 246 242 239 236 232 228 224 220
285 286 288 291 294 297 299 303 308 314 319 322 323 324 329 334 337 340 345 351 353 353 356 1 6 9 11 14 16 15 14 16 18 20 21 21 19 17 15 11 7 3 360 357 357 356 354 353 352 350 347 345 344 345 345 347 350 351 347 344 343 340 335 328 316 303 293 286 280 276 274 272 268 260 254 249 245 240 236 233 230 226 222 218 216
284 285 287 289 291 295 298 302 308 312 316 319 321 322 325 330 332 335 342 347 350 352 356 0 6 10 12 13 15 16 17 18 19 21 22 23 23 22 20 18 17 14 10 6 5 2 360 359 359 358 356 352 350 349 348 349 352 356 358 359 359 357 354 350 341 329 315 303 293 284 277 269 261 254 248 244 240 236 233 229 225 222 218 215 212
281 283 285 287 289 293 297 302 306 309 312 315 318 320 323 326 328 332 338 343 346 351 356 1 5 8 10 12 14 16 18 19 19 20 21 22 23 24 24 22 21 20 19 17 14 11 9 7 5 3 3 2 360 357 355 354 356 358 0 2 5 6 5 3 358 350 338 323 309 295 283 272 263 255 249 243 239 234 229 225 221 218 214 211 209
278 280 282 284 286 290 295 300 303 306 308 310 313 317 320 322 326 332 336 340 344 350 355 0 5 7 9 11 14 16 18 19 20 20 20 21 22 23 24 24 24 23 24 24 23 22 22 21 18 15 13 11 9 8 6 5 5 5 5 5 6 9 11 9 7 3 356 344 329 314 298 283 270 259 250 243 237 232 227 222 218 215 211 209 207
274 277 279 281 282 287 294 299 302 304 304 306 310 315 318 321 327 332 335 338 343 348 353 358 3 7 9 11 13 16 18 19 20 21 21 21 21 22 23 24 24 25 26 27 27 27 28 29 30 31 29 25 22 20 18 16 15 13 12 13 14 16 18 18 17 15 10 360 347 330 311 293 275 259 248 239 232 226 221 216 213 211 208 206 204
271 274 276 278 280 286 293 298 303 305 305 305 309 314 317 322 328 332 333 336 340 345 350 355 0 4 8 10 12 15 18 19 20 21 22 21 21 22 22 23 24 24 25 27 28 29 30 31 33 35 37 37 35 32 30 28 26 24 23 22 21 22 26 28 29 29 25 16 5 351 327 299 271 250 237 229 222 217 211 207 205 204 202 201 199
268 270 271 274 278 284 291 297 301 303 305 306 310 314 317 322 326 330 331 333 338 342 346 351 357 1 4 7 9 12 16 17 19 21 22 22 22 22 22 23 24 24 24 26 26 27 30 31 32 33 35 37 38 38 38 37 36 34 33 32 29 29 30 32 34 35 33 25 17 8 348 317 272 239 222 214 209 206 201 197 195 194 192 191 189
264 265 267 270 274 280 287 293 297 300 304 307 310 314 318 321 323 326 329 331 335 338 341 346 351 354 357 1 4 7 9 12 15 17 19 20 21 21 21 22 23 23 24 25 25 26 27 29 31 33 33 33 35 37 38 38 39 39 39 38 37 36 36 36 37 38 35 31 27 22 12 351 262 209 199 195 194 191 189 186 184 183 181 179 178
261 262 263 266 269 276 283 288 292 297 302 306 309 314 318 320 321 322 324 326 329 332 336 340 344 347 349 353 357 359 1 4 7 10 13 15 17 17 18 19 20 21 22 23 24 25 25 26 28 30 32 32 33 34 35 36 38 39 40 41 42 42 42 42 41 40 38 36 34 33 29 31 100 157 162 168 172 173 172 172 171 170 171 171 172
258 260 261 263 267 273 279 283 287 292 296 301 306 310 314 317 317 318 320 322 324 327 331 334 337 340 342 345 348 351 353 356 358 1 5 7 9 11 13 14 15 17 19 20 21 23 23 24 25 27 29 31 31 32 33 34 35 36 39 41 43 44 45 45 44 43 42 41 41 43 48 57 80 108 124 137 148 153 155 158 160 162 164 166 169